Temp
38 37 37 36 36 37 37 36 36 36 36 36 36 36 36 36 36 36 36 37 37 37 37 37 37 37 37 36 36 35 34 33 34 34 33 33 33 32 34 33 33 33
37 36 35 34 35 35 35 35 35 35 35 35 35 34 34 35 34 33 33 33 34 34 34 34 34 34 34 35 35 34 34 34 34 35 34 34 34 33 33 33 32 32
35 35 34 33 32 31 31 32 32 32 33 33 33 34 34 33 33 31 31 32 31 32 33 32 32 31 31 31 32 32 32 32 32 33 33 34 34 33 33 32 32 31
37 35 34 33 33 32 31 32 32 31 31 32 31 31 32 32 31 30 30 30 30 30 29 29 29 28 28 29 29 30 30 30 30 30 31 32 32 33 33 33 32 32
36 36 35 33 32 32 33 32 32 31 31 30 32 31 31 31 31 32 31 31 30 29 29 28 28 28 27 27 27 28 28 30 29 29 29 30 32 32 32 32 31 32
31 30 30 31 30 30 32 32 30 30 29 29 29 29 28 28 29 29 30 30 31 31 31 32 31 31 29 28 28 27 28 29 29 26 27 28 29 30 31 31 29 30
32 32 32 31 31 30 30 30 29 30 29 29 28 28 28 27 27 27 27 27 28 29 29 30 30 31 32 31 30 30 30 29 29 28 28 29 28 29 30 29 29 29
30 29 29 30 30 31 31 31 31 30 29 28 29 31 29 29 29 29 29 28 27 28 29 29 29 29 30 29 29 30 30 32 31 30 29 29 28 28 29 30 29 28
26 28 27 28 28 29 29 30 31 30 29 29 31 31 30 29 30 29 29 29 28 29 29 29 30 29 30 29 29 29 29 29 30 29 29 29 29 29 29 29 28 29
27 26 26 26 27 28 27 28 28 27 27 27 28 28 28 29 27 28 28 28 28 28 28 29 29 29 29 29 29 29 29 29 29 29 29 28 28 29 29 29 29 29
26 26 25 25 25 26 26 27 27 27 27 26 27 27 28 27 28 27 27 28 29 29 29 29 29 29 29 29 29 29 28 28 29 29 29 29 29 29 30 29 29 29
25 25 25 25 25 26 26 27 27 27 27 27 27 27 27 27 27 27 28 27 28 28 28 28 28 28 29 29 29 29 28 28 28 28 28 29 29 29 29 29 29 29
26 26 26 25 25 26 26 25 25 26 25 26 27 26 26 26 26 26 27 26 27 27 27 27 28 28 28 28 28 28 28 28 28 28 28 29 29 30 30 30 30 30
25 25 25 25 25 25 25 25 26 25 26 26 25 26 26 26 26 27 27 26 26 26 27 26 26 27 27 27 27 27 27 27 27 28 28 28 29 29 30 30 30 30
25 25 25 25 26 25 25 25 25 25 25 25 25 25 26 26 26 26 26 26 27 27 27 28 28 28 28 28 26 26 26 26 27 27 28 28 28 29 29 30 30 30
24 24 24 24 24 24 24 23 23 23 23 23 23 24 24 24 24 25 24 24 25 25 26 26 27 28 29 31 32 30 29 29 29 28 28 28 27 27 28 29 29 30
23 23 23 22 22 22 21 21 21 21 20 20 20 21 21 22 22 22 22 23 23 23 23 24 25 26 28 30 30 31 29 27 27 26 27 27 27 26 26 27 28 29
22 21 20 19 19 18 17 17 17 16 16 17 17 17 18 19 19 20 20 20 21 21 21 21 22 25 27 27 28 29 29 26 26 25 25 25 25 25 26 26 26 27
19 17 16 15 15 15 15 14 13 14 13 13 13 15 15 15 16 17 16 18 18 17 17 18 18 22 23 24 26 27 27 26 23 23 22 23 23 24 24 24 25 25
16 14 13 13 13 12 12 11 10 10 11 12 12 13 12 12 12 13 13 14 14 14 14 14 14 17 21 23 23 24 25 25 22 22 21 21 21 22 22 22 23 23
13 11 10 10 10 10 9 8 8 8 9 9 9 9 9 9 9 9 10 10 11 11 10 10 11 17 19 20 21 22 23 23 20 20 19 19 19 20 20 21 21 22
10 8 8 7 8 7 6 6 6 6 6 7 7 7 7 8 8 8 7 7 7 7 7 7 8 15 17 18 20 21 22 18 17 16 15 16 16 18 18 19 20 20
9 7 6 5 5 4 3 3 5 4 5 6 4 5 5 5 5 5 6 5 5 5 5 5 6 11 15 17 18 20 18 15 15 15 15 15 16 16 17 18 19 19
7 5 4 4 2 2 2 4 4 4 3 4 3 3 3 3 4 3 4 4 4 3 4 4 5 9 14 16 17 18 17 14 14 13 13 14 15 17 18 18 19 22
5 4 3 2 2 2 2 2 2 2 3 3 3 2 2 2 2 2 1 2 2 3 6 5 4 7 13 14 16 17 16 14 14 13 12 13 13 14 16 16 17 18
3 2 2 1 1 1 1 1 2 2 2 2 1 1 0 1 1 1 -0 0 2 2 3 4 4 4 7 13 15 16 18 14 13 12 11 11 12 13 12 13 15 15
MSLP
1025.62 1025.70 1025.86 1025.94 1026.02 1025.98 1025.98 1025.94 1025.94 1025.94 1026.02 1026.10 1026.06 1026.06 1025.98 1025.90 1025.78 1025.54 1025.30 1025.10 1024.90 1024.74 1024.62 1024.42 1024.22 1024.06 1024.02 1023.86 1023.74 1023.54 1023.34 1023.26 1023.10 1023.02 1022.90 1022.74 1022.50 1022.34 1022.14 1021.98 1021.90 1021.94
1025.70 1025.82 1025.90 1025.98 1026.02 1025.98 1025.90 1025.82 1025.82 1025.74 1025.78 1025.82 1025.82 1025.82 1025.74 1025.62 1025.58 1025.50 1025.38 1025.22 1025.06 1024.98 1024.94 1024.86 1024.78 1024.62 1024.38 1024.10 1023.86 1023.62 1023.38 1023.30 1023.18 1023.10 1022.98 1022.74 1022.62 1022.50 1022.26 1022.14 1022.10 1022.06
1025.70 1025.74 1025.82 1025.82 1025.86 1025.82 1025.78 1025.74 1025.70 1025.70 1025.70 1025.74 1025.78 1025.78 1025.74 1025.70 1025.70 1025.66 1025.58 1025.50 1025.46 1025.38 1025.30 1025.30 1025.18 1025.06 1024.90 1024.66 1024.34 1024.02 1023.74 1023.46 1023.26 1023.18 1023.14 1022.94 1022.70 1022.54 1022.30 1022.18 1022.10 1022.02
1025.38 1025.66 1025.78 1025.82 1025.82 1025.70 1025.78 1025.50 1025.62 1025.74 1025.78 1025.66 1025.78 1025.90 1025.82 1025.82 1025.82 1025.78 1025.78 1025.78 1025.74 1025.70 1025.62 1025.54 1025.46 1025.34 1025.14 1024.90 1024.66 1024.30 1024.06 1023.74 1023.58 1023.46 1023.18 1022.90 1022.74 1022.58 1022.34 1022.18 1022.02 1021.94
1025.62 1025.78 1025.94 1025.94 1025.90 1025.90 1025.82 1025.74 1025.70 1025.70 1025.62 1025.70 1025.58 1025.62 1025.62 1025.62 1025.58 1025.50 1025.50 1025.54 1025.58 1025.58 1025.54 1025.50 1025.42 1025.34 1025.18 1025.02 1024.82 1024.58 1024.30 1024.02 1023.74 1023.62 1023.38 1023.06 1022.74 1022.66 1022.46 1022.26 1022.06 1021.90
1026.14 1026.38 1026.46 1026.42 1026.42 1026.26 1026.10 1025.98 1025.90 1025.82 1025.86 1025.82 1025.98 1026.14 1026.06 1026.02 1025.98 1025.90 1025.86 1025.78 1025.70 1025.62 1025.42 1025.22 1025.06 1024.94 1024.90 1024.74 1024.58 1024.34 1024.10 1023.86 1023.66 1023.58 1023.42 1023.18 1022.90 1022.66 1022.42 1022.22 1022.06 1021.86
1026.42 1026.50 1026.38 1026.50 1026.30 1026.22 1025.98 1025.82 1025.86 1025.94 1025.98 1026.14 1026.26 1026.02 1026.26 1026.14 1026.14 1026.14 1026.18 1026.18 1026.14 1025.98 1025.82 1025.58 1025.30 1024.86 1024.54 1024.34 1024.06 1023.78 1023.54 1023.42 1023.26 1023.18 1023.10 1022.94 1022.82 1022.50 1022.26 1022.10 1021.90 1021.74
1026.18 1026.30 1026.34 1026.38 1026.18 1025.98 1025.82 1025.70 1025.74 1025.78 1025.90 1026.10 1025.90 1025.86 1026.06 1025.98 1025.90 1025.94 1025.98 1026.02 1025.94 1025.78 1025.62 1025.38 1025.10 1024.82 1024.58 1024.38 1024.14 1023.86 1023.54 1023.34 1023.18 1023.02 1022.90 1022.78 1022.66 1022.46 1022.18 1022.02 1021.86 1021.66
1026.26 1026.18 1026.38 1026.34 1026.26 1026.02 1025.90 1025.90 1025.90 1025.98 1026.06 1026.10 1025.94 1025.86 1025.90 1025.94 1025.82 1025.82 1025.78 1025.78 1025.66 1025.46 1025.26 1024.98 1024.74 1024.54 1024.30 1024.14 1023.98 1023.82 1023.66 1023.42 1023.34 1023.26 1023.10 1022.90 1022.66 1022.42 1022.22 1022.10 1021.90 1021.66
1026.34 1026.50 1026.50 1026.42 1026.34 1026.30 1026.30 1026.22 1026.34 1026.34 1026.38 1026.34 1026.14 1026.14 1026.02 1025.94 1026.02 1025.94 1025.86 1025.74 1025.58 1025.30 1025.10 1024.86 1024.62 1024.42 1024.18 1024.02 1023.90 1023.78 1023.58 1023.38 1023.18 1023.10 1023.02 1022.86 1022.70 1022.46 1022.18 1022.02 1021.82 1021.54
1026.74 1026.86 1026.82 1026.70 1026.62 1026.70 1026.66 1026.66 1026.66 1026.62 1026.62 1026.58 1026.50 1026.38 1026.26 1026.22 1026.10 1026.02 1025.86 1025.62 1025.38 1025.14 1024.90 1024.70 1024.50 1024.30 1024.06 1023.86 1023.70 1023.62 1023.54 1023.34 1023.14 1022.98 1022.82 1022.62 1022.42 1022.22 1021.98 1021.82 1021.58 1021.34
1027.10 1027.06 1026.98 1026.94 1026.86 1026.78 1026.74 1026.66 1026.62 1026.54 1026.50 1026.50 1026.42 1026.26 1026.14 1026.10 1025.98 1025.78 1025.66 1025.42 1025.22 1025.02 1024.82 1024.58 1024.34 1024.14 1023.94 1023.70 1023.54 1023.46 1023.42 1023.22 1023.02 1022.82 1022.62 1022.38 1022.10 1021.78 1021.54 1021.38 1021.18 1020.90
1027.18 1027.18 1027.14 1027.10 1027.06 1027.02 1026.98 1026.90 1026.78 1026.74 1026.66 1026.58 1026.50 1026.42 1026.22 1026.02 1025.86 1025.70 1025.50 1025.38 1025.18 1024.94 1024.74 1024.50 1024.22 1023.94 1023.78 1023.58 1023.42 1023.34 1023.18 1022.98 1022.70 1022.42 1022.18 1021.94 1021.62 1021.30 1021.02 1020.78 1020.58 1020.38
1027.22 1027.22 1027.18 1027.18 1027.18 1027.14 1027.02 1026.98 1026.90 1026.86 1026.82 1026.70 1026.58 1026.42 1026.22 1026.02 1025.82 1025.62 1025.38 1025.26 1025.06 1024.86 1024.62 1024.42 1024.18 1023.82 1023.58 1023.50 1023.42 1023.22 1022.98 1022.70 1022.42 1022.06 1021.70 1021.42 1021.10 1020.82 1020.54 1020.26 1019.98 1019.74
1027.26 1027.30 1027.30 1027.30 1027.22 1027.14 1027.10 1027.10 1027.10 1027.02 1026.90 1026.78 1026.62 1026.46 1026.22 1026.06 1025.86 1025.62 1025.38 1025.06 1024.86 1024.70 1024.46 1024.22 1023.94 1023.62 1023.38 1023.30 1023.18 1022.90 1022.70 1022.42 1022.10 1021.74 1021.42 1021.06 1020.66 1020.34 1020.02 1019.78 1019.50 1019.26
1027.54 1027.58 1027.58 1027.54 1027.50 1027.46 1027.46 1027.46 1027.34 1027.22 1027.02 1026.86 1026.62 1026.46 1026.30 1026.06 1025.82 1025.62 1025.46 1025.26 1024.90 1024.58 1024.34 1024.14 1023.82 1023.50 1023.38 1023.30 1023.06 1022.74 1022.38 1022.06 1021.78 1021.46 1021.14 1020.82 1020.42 1019.98 1019.58 1019.34 1019.06 1018.82
1027.82 1027.86 1027.86 1027.90 1027.94 1027.94 1027.94 1027.86 1027.74 1027.58 1027.42 1027.10 1026.82 1026.62 1026.42 1026.14 1025.94 1025.74 1025.46 1025.30 1025.14 1024.82 1024.42 1024.06 1023.74 1023.50 1023.42 1023.18 1022.90 1022.66 1022.50 1022.18 1021.74 1021.26 1020.86 1020.50 1020.18 1019.78 1019.30 1018.86 1018.54 1018.38
1028.14 1028.26 1028.38 1028.42 1028.42 1028.46 1028.42 1028.34 1028.18 1028.02 1027.78 1027.46 1027.14 1026.86 1026.54 1026.34 1026.18 1025.86 1025.62 1025.54 1025.30 1024.98 1024.66 1024.26 1023.82 1023.58 1023.54 1023.30 1022.98 1022.70 1022.42 1022.06 1021.62 1021.14 1020.66 1020.26 1019.86 1019.50 1019.06 1018.66 1018.22 1017.94
1028.66 1028.78 1028.82 1028.82 1028.82 1028.86 1028.74 1028.62 1028.46 1028.26 1028.02 1027.70 1027.42 1027.14 1026.90 1026.58 1026.30 1026.14 1025.98 1025.78 1025.62 1025.26 1024.82 1024.38 1024.14 1023.86 1023.78 1023.38 1022.98 1022.62 1022.22 1021.90 1021.50 1021.02 1020.54 1020.06 1019.62 1019.22 1018.82 1018.46 1018.06 1017.70
1029.18 1029.26 1029.22 1029.22 1029.18 1029.10 1028.98 1028.82 1028.70 1028.46 1028.26 1028.06 1027.70 1027.34 1027.18 1026.90 1026.66 1026.50 1026.30 1026.14 1025.90 1025.66 1025.22 1024.74 1024.50 1024.30 1023.94 1023.38 1022.94 1022.54 1022.06 1021.70 1021.18 1020.70 1020.26 1019.86 1019.42 1019.02 1018.70 1018.34 1017.98 1017.66
1029.66 1029.70 1029.66 1029.58 1029.54 1029.42 1029.26 1029.10 1028.90 1028.66 1028.42 1028.22 1027.98 1027.74 1027.50 1027.18 1026.90 1026.66 1026.38 1026.34 1026.22 1026.02 1025.70 1025.10 1024.70 1024.46 1023.98 1023.46 1022.98 1022.42 1021.90 1021.46 1020.94 1020.50 1020.06 1019.66 1019.26 1018.98 1018.70 1018.26 1017.94 1017.54
1029.90 1029.90 1029.90 1029.90 1029.78 1029.66 1029.58 1029.34 1029.10 1028.98 1028.70 1028.38 1028.14 1027.86 1027.62 1027.38 1027.10 1026.98 1026.74 1026.46 1026.34 1026.26 1025.90 1025.18 1024.62 1024.50 1024.02 1023.38 1022.82 1022.26 1021.78 1021.30 1020.86 1020.42 1019.94 1019.46 1018.94 1018.62 1018.42 1018.14 1017.82 1017.54
1030.10 1030.10 1030.10 1030.06 1029.98 1029.86 1029.66 1029.50 1029.22 1028.98 1028.90 1028.74 1028.38 1027.94 1027.74 1027.50 1027.30 1027.02 1026.90 1026.74 1026.38 1026.22 1025.94 1025.18 1024.50 1024.26 1023.86 1023.18 1022.58 1022.06 1021.66 1021.30 1020.74 1020.10 1019.50 1018.98 1018.54 1018.22 1017.94 1017.58 1017.30 1017.02
1030.26 1030.30 1030.22 1030.10 1030.06 1029.90 1029.62 1029.38 1029.26 1029.14 1029.02 1028.78 1028.58 1028.06 1027.70 1027.54 1027.38 1027.02 1026.82 1026.78 1026.50 1026.06 1025.86 1025.26 1024.30 1023.98 1023.66 1022.98 1022.38 1021.90 1021.58 1021.02 1020.46 1019.94 1019.30 1018.74 1018.26 1017.86 1017.58 1017.18 1016.82 1016.58
1030.30 1030.34 1030.26 1030.10 1029.94 1029.70 1029.54 1029.34 1029.14 1029.02 1028.78 1028.66 1028.46 1028.18 1027.78 1027.54 1027.38 1027.06 1026.62 1026.46 1026.34 1025.90 1025.42 1025.10 1024.34 1023.82 1023.54 1022.94 1022.26 1021.66 1021.22 1020.78 1020.18 1019.62 1019.02 1018.58 1018.30 1017.70 1017.42 1017.26 1016.78 1016.62
1030.30 1030.26 1030.18 1030.06 1029.78 1029.46 1029.38 1029.26 1028.98 1028.78 1028.58 1028.42 1028.14 1028.02 1027.70 1027.38 1027.22 1026.98 1026.54 1026.06 1025.90 1025.62 1025.14 1024.82 1024.34 1023.58 1023.34 1022.70 1021.94 1021.30 1020.82 1020.38 1019.82 1019.42 1018.82 1018.38 1018.10 1017.70 1017.10 1016.86 1016.70 1016.10
Wind_Speed
6 5 5 5 4 4 3 4 2 3 3 2 3 2 2 2 4 5 6 7 7 8 9 9 9 9 7 7 6 6 6 6 6 5 6 6 5 5 6 5 5 5
6 5 4 4 4 3 3 3 3 4 4 3 3 3 4 5 6 5 7 8 8 8 8 9 9 9 10 9 9 8 7 6 7 5 7 8 6 5 5 5 5 5
5 6 6 6 5 4 4 3 4 4 5 4 3 5 4 4 5 5 5 5 6 7 7 7 7 7 7 7 8 8 8 8 8 6 5 6 6 6 6 5 4 4
7 6 6 5 5 5 5 6 6 6 5 7 6 4 4 4 3 4 3 3 3 4 4 4 4 4 4 5 5 7 7 7 6 6 7 7 5 4 6 5 5 5
7 7 6 6 5 6 6 6 6 6 6 6 7 8 8 9 9 9 9 8 5 5 4 4 3 3 3 3 3 4 4 5 6 5 7 8 8 5 5 4 5 5
3 2 2 2 2 2 3 3 3 3 4 5 4 4 4 5 6 6 7 8 9 9 10 10 9 7 4 4 3 3 3 5 5 3 4 5 7 7 7 5 5 6
2 2 3 2 3 1 2 3 2 2 2 2 3 4 2 3 3 4 4 4 5 6 6 7 8 10 9 8 8 9 8 6 5 5 6 6 5 8 6 6 7 7
3 3 3 3 4 4 4 4 4 3 3 3 3 5 2 4 4 4 4 4 4 6 5 6 6 6 7 6 8 9 10 8 8 9 9 9 7 7 8 7 7 8
3 4 3 4 4 5 4 5 5 5 4 4 5 5 4 4 5 5 6 6 6 7 7 7 8 8 7 7 8 8 8 9 7 7 8 9 10 10 9 7 7 8
4 4 4 4 4 5 4 5 5 5 5 5 6 5 6 6 5 6 6 6 7 8 7 8 8 8 8 7 8 8 9 10 9 9 8 8 8 9 10 9 9 9
5 4 3 4 4 4 4 5 5 5 4 4 5 5 5 5 6 5 6 6 7 8 8 8 9 9 9 9 8 7 7 9 9 9 9 10 9 10 9 9 9 10
3 3 3 4 4 4 5 5 6 5 6 5 5 7 7 5 6 6 6 7 8 8 8 9 9 9 9 10 9 8 8 8 8 8 9 9 10 10 10 9 9 10
3 3 3 3 3 4 4 4 4 4 4 5 5 5 6 6 6 6 6 6 8 8 8 9 10 9 9 9 9 8 9 9 10 10 10 10 10 11 11 11 11 10
3 3 4 4 3 3 3 3 3 4 4 4 4 5 5 6 6 7 7 5 7 7 8 7 8 10 9 8 8 8 9 9 10 11 11 11 11 11 11 12 12 12
4 4 4 4 5 5 5 5 5 5 5 5 5 6 6 6 7 7 9 9 9 8 9 8 9 9 8 6 6 8 7 8 10 10 11 11 12 12 12 12 12 12
4 4 4 5 5 6 6 7 7 7 8 8 8 7 8 8 8 8 8 9 11 11 10 9 9 8 10 18 17 12 11 10 10 11 11 12 13 13 14 13 13 12
4 4 4 5 5 6 6 7 8 8 9 9 10 9 10 10 9 11 10 9 10 11 12 11 10 9 19 20 21 23 15 11 12 12 12 12 12 13 14 14 13 12
4 4 5 5 5 6 6 6 7 7 8 8 9 10 10 9 10 10 10 10 10 11 12 12 12 16 22 22 23 24 22 15 12 12 12 12 12 13 12 12 12 12
5 5 5 5 5 6 6 7 8 9 8 9 10 9 9 10 11 11 11 10 10 11 12 12 12 19 22 24 24 25 25 21 11 11 12 12 13 12 13 12 11 12
6 5 6 6 6 7 8 8 8 9 8 8 8 9 9 10 9 11 10 9 9 10 12 13 13 17 23 25 24 25 26 22 13 13 12 13 14 14 13 14 14 12
5 4 5 6 7 7 8 8 8 9 9 8 8 9 10 10 10 10 10 8 9 9 11 13 13 21 23 25 24 25 26 23 14 12 11 12 13 13 14 14 14 14
4 5 5 6 7 7 7 9 8 8 9 9 9 9 8 7 8 7 9 10 9 10 12 14 13 22 23 24 25 25 27 16 14 13 12 12 13 11 11 12 13 13
4 6 6 6 6 7 8 7 8 9 8 6 10 9 9 9 9 9 8 10 12 10 11 14 14 18 22 25 25 26 21 13 14 13 13 13 13 12 13 12 12 12
4 5 7 7 7 7 8 8 7 7 7 6 8 11 11 9 9 10 9 7 10 11 10 13 15 18 24 25 26 26 22 15 13 13 14 14 15 15 13 13 15 23
4 5 6 7 8 8 7 9 9 8 8 7 7 8 10 9 8 9 9 8 7 11 18 17 14 17 23 24 26 26 20 14 13 12 14 14 13 14 13 13 15 16
4 5 6 7 9 9 8 8 8 8 8 8 9 7 9 9 8 8 10 10 8 10 11 11 13 14 16 25 25 25 25 16 12 12 13 15 14 14 14 13 14 14
Wind_Direction
71 69 75 72 74 77 81 82 83 87 82 77 65 30 21 346 356 5 6 7 8 10 4 2 3 5 5 5 6 0 5 354 349 351 342 336 330 328 316 307 302 281
66 68 71 81 73 68 64 71 60 58 45 43 30 13 359 2 1 8 5 2 2 3 360 1 0 358 357 358 355 359 355 360 351 349 346 340 332 332 314 305 295 293
58 54 52 50 47 39 34 36 49 38 33 16 17 15 1 1 356 356 358 360 357 351 352 352 352 352 349 349 348 351 351 346 348 344 340 331 325 328 310 307 306 294
39 43 39 34 33 28 20 26 21 22 16 17 12 4 10 360 355 347 339 336 334 328 322 329 330 328 331 332 341 343 338 334 331 338 336 328 324 312 312 315 306 307
28 20 15 16 11 15 17 22 11 7 9 357 359 3 1 359 358 356 355 352 352 342 330 321 295 301 294 301 297 307 309 307 318 335 334 327 321 325 306 306 301 302
359 357 351 11 4 21 5 2 348 358 356 353 340 340 345 348 352 345 343 343 340 341 338 337 337 331 326 318 305 295 294 303 298 306 308 306 309 316 318 317 311 301
287 311 313 337 326 2 358 321 319 315 294 280 316 309 303 313 311 305 300 305 310 313 316 317 323 324 328 333 333 329 328 323 316 320 316 308 307 307 307 313 313 308
315 314 318 328 337 324 334 319 318 309 291 322 304 295 292 296 297 299 294 293 299 297 298 302 301 303 308 317 318 321 320 324 326 326 322 315 314 305 305 306 304 304
328 313 328 312 324 310 317 310 304 303 299 295 289 288 303 293 292 296 297 301 301 298 301 302 302 303 305 310 309 310 309 308 310 311 310 310 312 306 302 300 297 291
309 310 331 320 313 293 299 288 294 291 296 297 279 292 292 291 294 291 295 294 292 294 293 293 298 296 297 298 297 299 301 302 305 307 300 295 290 292 296 296 290 291
314 328 319 304 286 286 277 282 284 286 289 279 285 284 276 283 284 276 281 282 283 284 290 290 290 292 294 293 291 287 288 292 296 297 296 294 291 287 282 282 281 277
293 312 312 308 308 311 308 306 309 311 307 308 300 295 295 288 283 290 282 284 286 285 284 286 286 285 285 288 289 289 284 283 284 282 282 283 285 285 283 278 275 275
338 340 330 321 315 304 304 305 302 297 299 293 293 286 289 293 289 285 285 279 282 285 284 285 287 284 283 284 286 286 283 283 282 281 279 279 278 279 281 280 276 274
360 344 347 338 324 319 314 315 317 316 310 302 305 306 301 301 304 304 300 294 284 283 282 281 282 285 285 282 279 277 278 274 274 277 280 278 277 275 276 276 277 276
349 352 351 347 340 344 347 345 342 332 326 324 322 318 316 313 312 310 310 309 304 298 299 296 291 290 292 294 287 283 270 270 275 276 277 281 281 279 276 275 273 272
350 349 349 346 350 351 349 345 341 338 334 330 326 322 319 317 315 313 309 308 310 310 307 303 298 296 303 307 307 303 303 302 296 291 287 283 282 282 279 275 272 272
356 351 352 357 353 348 346 343 337 335 329 324 321 322 320 318 318 314 312 314 314 312 310 306 302 302 311 313 312 312 311 305 298 294 289 286 282 280 281 282 278 273
357 3 1 352 351 345 338 334 329 326 322 317 315 318 317 316 313 310 313 318 314 311 306 304 304 308 314 315 313 312 308 303 299 294 292 288 286 282 280 280 281 280
11 3 349 346 343 338 331 329 326 319 316 318 314 314 314 313 314 316 313 317 315 311 308 307 305 311 315 313 311 309 306 304 295 288 287 286 285 282 282 282 283 283
6 355 344 337 335 332 329 324 321 314 313 312 310 313 313 310 311 310 311 313 314 313 308 306 305 312 312 310 310 308 305 303 293 289 284 282 284 285 286 285 284 285
2 344 335 328 326 323 321 316 313 313 315 316 315 312 313 312 313 314 312 314 314 313 307 302 303 309 310 310 308 305 303 303 295 290 286 284 282 281 283 283 284 283
350 336 325 320 316 314 311 310 311 312 315 318 311 306 301 302 302 304 307 311 312 311 305 300 300 307 308 307 305 304 304 301 295 290 286 281 278 277 278 281 284 285
343 328 318 313 311 309 307 307 311 312 310 309 304 303 305 307 305 304 308 307 306 304 301 297 298 306 308 306 305 304 304 298 292 286 284 285 284 284 281 275 269 266
323 315 309 308 307 304 305 303 303 298 295 302 298 303 302 303 304 302 299 297 298 298 297 297 298 303 305 304 303 302 300 297 295 292 289 290 293 292 294 294 294 297
304 302 301 302 302 300 302 302 303 299 297 296 287 289 291 298 298 297 294 290 285 287 297 297 294 297 302 301 300 299 299 292 289 287 289 291 295 294 293 293 294 296
297 297 296 298 300 300 299 296 299 300 298 298 294 288 291 294 291 289 290 291 289 287 288 289 290 291 296 298 298 297 297 295 288 288 290 291 289 289 293 289 285 283